This is the latest recevied weather packets stored in our database for station/object OK2JCZ-6. If no packets are shown the sender has not sent any weather packets the latest 10 day(s).
| Time | Temp. | Humidity | Pressure | Rain* | Wind** | Luminosity | Snow |
|---|---|---|---|---|---|---|---|
| 1787913235 | 26.67° C | 31% | 1014 hPa | 0 mm | - | - | - |
| 1787912929 | 26.67° C | 31% | 1014.1 hPa | 0 mm | - | - | - |
| 1787912629 | 26.67° C | 31% | 1014.3 hPa | 0 mm | - | - | - |
| 1787912329 | 26.11° C | 31% | 1014.4 hPa | 0 mm | - | - | - |
| 1787912029 | 26.11° C | 31% | 1014.4 hPa | 0 mm | - | - | - |
| 1787911729 | 26.11° C | 31% | 1014.5 hPa | 0 mm | - | - | - |
| 1787911429 | 26.11° C | 31% | 1014.5 hPa | 0 mm | - | - | - |
| 1787911129 | 26.11° C | 32% | 1014.7 hPa | 0 mm | - | - | - |
| 1787910229 | 25.56° C | 32% | 1015.1 hPa | 0 mm | - | - | - |
| 1787909929 | 25.56° C | 32% | 1015.2 hPa | 0 mm | - | - | - |
| 1787909029 | 25° C | 34% | 1015.2 hPa | 0 mm | - | - | - |
| 1787908729 | 24.44° C | 33% | 1015.3 hPa | 0 mm | - | - | - |
| 1787908429 | 24.44° C | 34% | 1015.4 hPa | 0 mm | - | - | - |
| 1787908129 | 23.89° C | 34% | 1015.5 hPa | 0 mm | - | - | - |
| 1787907829 | 23.89° C | 34% | 1015.5 hPa | 0 mm | - | - | - |
| 1787907529 | 23.33° C | 35% | 1015.5 hPa | 0 mm | - | - | - |
| 1787907229 | 23.33° C | 35% | 1015.5 hPa | 0 mm | - | - | - |
| 1787906929 | 22.78° C | 35% | 1015.5 hPa | 0 mm | - | - | - |
| 1787906629 | 22.78° C | 36% | 1015.5 hPa | 0 mm | - | - | - |
| 1787906329 | 22.78° C | 36% | 1015.5 hPa | 0 mm | - | - | - |
| 1787906029 | 22.78° C | 36% | 1015.6 hPa | 0 mm | - | - | - |
| 1787905729 | 22.22° C | 36% | 1015.6 hPa | 0 mm | - | - | - |
| 1787905429 | 22.22° C | 36% | 1015.8 hPa | 0 mm | - | - | - |
| 1787905129 | 21.11° C | 36% | 1015.7 hPa | 0 mm | - | - | - |
| 1787904829 | 21.11° C | 38% | 1015.8 hPa | 0 mm | - | - | - |
* Rain latest hour (hover to see other rain measurements)
** Current wind speed in m/s (hover to see current wind gust speed)